Location: Karcze
(52.0945°N, 22.4786°E)
Time: 18:32:32
(UTC+00:00)

A-11 Canister half - Pass Details

Date: 06 August 2021
Orbit: 1515 x 1685 km, 47.2° (Epoch: 20 September)

Event Time Altitude Azimuth Distance (km) Brightness Sun altitude
Rises 19:06:20 0° 282° (WNW) 4,860 12.9 -7.8°
Reaches altitude 10° 19:09:33 10° 277° (W) 3,893 12.1 -8.2°
Maximum altitude 19:19:00 50° 207° (SSW) 2,060 9.6 -9.3°
Enters shadow 19:28:02 12° 137° (SE) 3,783 10.4 -10.3°
Drops below altitude 10° 19:28:35 10° 136° (SE) 3,945 - -10.3°
Sets 19:31:53 0° 131° (SE) 4,930 - -10.7°
